Weather History for Window Rock, AZ

Change the Weather History Date:

Thursday, April 10, 2014

  Actual Average Record
Temperature  
Mean Temperature 54 °F -  
Max Temperature 75 °F 64 °F 82 °F (1989)
Min Temperature 34 °F 27 °F 12 °F (1950)
Degree Days  
Heating Degree Days 12    
Growing Degree Days 4 (Base 50)    
Moisture  
Dew Point -2 °F    
Average Humidity 13    
Maximum Humidity 34    
Minimum Humidity 4    
Precipitation  
Precipitation 0.00 in - - ()
Sea Level Pressure  
Sea Level Pressure 29.93 in    
Wind  
Wind Speed 5 mph (West)    
Max Wind Speed 18 mph    
Max Gust Speed 30 mph    
Visibility 10 miles    
Events      
Averages and records for this station are not official NWS values.
T = Trace of Precipitation, MM = Missing Value Source: NWS Daily Summary

Daily Weather History Graph

Daily Weather History Graph

Search for Another Location

Airport:

Trip Planner

Search our weather history database for the weather conditions in past years. The results will help you decide how hot, cold, wet, or windy it might be!

Date:

Astronomy

Apr. 10, 2014 Rise Set
Actual Time 6:50 AM MDT 7:45 PM MDT
Civil Twilight 6:24 AM MDT 8:11 PM MDT
Nautical Twilight 5:53 AM MDT 8:42 PM MDT
Astronomical Twilight 5:21 AM MDT 9:14 PM MDT
Moon 3:40 PM MDT (4/10) 4:05 AM MDT (4/10)
Length of Visible Light 13h 47m
Length of Day
12h 55m
Waxing Gibbous, 80% of the Moon is Illuminated
Apr 10
Waxing Gibbous
Apr 15
Full
Apr 22
Last Quarter
Apr 29
New
May 6
First Quarter

Hourly Weather History & Observations

Time (MDT) Temp. Windchill Dew Point Humidity Pressure Visibility Wind Dir Wind Speed Gust Speed Precip Events Conditions
12:53 AM 45.0 °F - 5.0 °F 19% 29.93 in 10.0 mi Calm Calm - N/A   Clear
1:53 AM 41.0 °F 39.0 °F 5.0 °F 23% 29.94 in 10.0 mi Variable 3.5 mph - N/A   Clear
2:53 AM 39.0 °F 35.7 °F 3.9 °F 23% 29.95 in 10.0 mi South 4.6 mph - N/A   Clear
3:53 AM 46.9 °F - -2.0 °F 13% 29.89 in 10.0 mi Calm Calm - N/A   Clear
4:53 AM 39.9 °F - 1.9 °F 20% 29.92 in 10.0 mi Calm Calm - N/A   Clear
5:53 AM 37.0 °F - 6.1 °F 28% 29.95 in 10.0 mi Calm Calm - N/A   Clear
6:53 AM 34.0 °F - 8.1 °F 34% 30.00 in 10.0 mi Calm Calm - N/A   Clear
7:53 AM 51.1 °F - 1.0 °F 13% 29.96 in 10.0 mi Calm Calm - N/A   Clear
8:53 AM 57.9 °F - -0.0 °F 10% 29.97 in 10.0 mi West 5.8 mph - N/A   Clear
9:53 AM 64.9 °F - -0.9 °F 7% 29.97 in 10.0 mi West 12.7 mph - N/A   Clear
10:53 AM 69.1 °F - -0.9 °F 6% 29.97 in 10.0 mi WNW 16.1 mph 25.3 mph N/A   Clear
11:53 AM 70.0 °F - -4.0 °F 5% 29.96 in 10.0 mi NW 12.7 mph 29.9 mph N/A   Clear
12:53 PM 73.0 °F - -5.1 °F 4% 29.92 in 10.0 mi West 12.7 mph 21.9 mph N/A   Clear
1:53 PM 73.0 °F - -5.1 °F 4% 29.93 in 10.0 mi West 16.1 mph 21.9 mph N/A   Clear
2:53 PM 73.9 °F - -8.0 °F 4% 29.90 in 10.0 mi West 18.4 mph 25.3 mph N/A   Clear
3:53 PM 73.9 °F - -17.0 °F 4% 29.86 in 10.0 mi WNW 15.0 mph 23.0 mph N/A   Clear
4:53 PM 72.0 °F - -14.1 °F 4% 29.89 in 10.0 mi WSW 16.1 mph - N/A   Clear
5:53 PM 72.0 °F - -11.0 °F 4% 29.89 in 10.0 mi WNW 12.7 mph 24.2 mph N/A   Clear
6:53 PM 70.0 °F - -8.0 °F 4% 29.91 in 10.0 mi West 9.2 mph - N/A   Clear
7:53 PM 60.1 °F - -2.9 °F 8% 29.88 in 10.0 mi SSW 4.6 mph - N/A   Clear
8:53 PM 55.9 °F - -0.9 °F 10% 29.88 in 10.0 mi Calm Calm - N/A   Clear
9:53 PM 43.0 °F 41.3 °F 1.9 °F 18% 29.94 in 10.0 mi SE 3.5 mph - N/A   Clear
10:53 PM 45.0 °F - 1.9 °F 17% 29.92 in 10.0 mi Calm Calm - N/A   Clear
11:53 PM 42.1 °F - 3.0 °F 20% 29.94 in 10.0 mi Calm Calm - N/A   Clear